N7MLR Weather Reports


Display with metric or nautical units.
time (UTC)temp
F
wind
direction
speed
MPH
gust
MPH
rain 1hr
in
rain 24hr
in
rain mn
in
humidity
%
barometer
mb
20260509061135 72 198 1.0 1.0 0.00 0.00 0.00 95 1010.1
20260509060632 71 213 1.0 1.0 0.00 0.00 0.00 97 1010.1
20260509060128 71 204 1.0 1.0 0.00 0.00 0.00 97 1010.5
20260509055624 71 204 0.0 1.0 0.00 0.00 0.00 97 1010.4
20260509055120 71 204 0.0 1.0 0.00 0.00 0.00 97 1010.7
20260509054617 71 204 0.0 0.0 0.00 0.00 0.00 97 1010.8
20260509054115 71 209 1.0 1.0 0.00 0.00 0.00 97 1010.6
20260509053613 71 192 1.0 1.0 0.00 0.00 0.00 97 1010.5
20260509053109 71 194 0.0 1.0 0.00 0.00 0.00 97 1010.6
20260509052607 71 186 0.0 1.0 0.00 0.00 0.00 97 1010.8
20260509052105 71 186 0.0 0.0 0.00 0.00 0.00 97 1010.8
20260509051603 71 191 1.0 2.0 0.00 0.00 0.00 97 1010.9
20260509051059 71 188 1.0 1.0 0.00 0.00 0.00 97 1011.1
20260509050556 71 196 1.0 1.0 0.00 0.00 0.00 97 1010.9
20260509050052 71 197 0.0 0.0 0.00 0.00 0.00 97 1010.7
20260509045551 70 196 0.0 0.0 0.00 0.01 0.01 97 1010.6
20260509045047 70 196 0.0 0.0 0.00 0.01 0.01 97 1010.8
20260509044544 70 196 0.0 1.0 0.00 0.01 0.01 97 1010.6
20260509044042 70 196 0.0 0.0 0.00 0.01 0.01 97 1010.3
20260509043538 70 197 0.0 0.0 0.00 0.01 0.01 96 1010.1
20260509043034 69 197 0.0 0.0 0.00 0.01 0.01 96 1010.3
20260509042530 69 197 0.0 0.0 0.00 0.01 0.01 96 1010.4
20260509042026 69 197 0.0 0.0 0.00 0.01 0.01 95 1010.1
20260509041523 70 197 0.0 0.0 0.00 0.01 0.01 95 1010.0
20260509041021 70 197 1.0 1.0 0.00 0.01 0.01 95 1009.7
20260509040519 70 197 0.0 0.0 0.00 0.01 0.01 94 1009.7
20260509040016 71 197 0.0 0.0 0.00 0.01 0.01 93 1009.8
20260509035513 71 196 0.0 0.0 0.00 0.01 0.01 93 1010.0
20260509035009 71 196 0.0 1.0 0.00 0.01 0.01 93 1010.4
20260509034508 72 197 1.0 1.0 0.00 0.01 0.01 93 1010.3
20260509034004 71 197 1.0 1.0 0.00 0.01 0.01 94 1010.2
20260509033501 71 197 0.0 1.0 0.00 0.01 0.01 94 1010.1
20260509032957 71 197 1.0 1.0 0.00 0.01 0.01 94 1010.0
20260509032455 71 200 0.0 0.0 0.00 0.01 0.01 94 1010.0
20260509031952 71 200 0.0 0.0 0.00 0.01 0.01 94 1010.2
20260509031449 71 200 0.0 0.0 0.00 0.01 0.01 94 1010.0
20260509030947 71 200 0.0 0.0 0.00 0.01 0.01 93 1010.0
20260509030445 71 200 0.0 0.0 0.00 0.01 0.01 93 1009.9
20260509025942 71 200 0.0 0.0 0.00 0.01 0.01 93 1010.0
20260509025437 71 200 0.0 0.0 0.00 0.01 0.01 93 1009.8
20260509024933 71 200 0.0 0.0 0.00 0.01 0.01 93 1009.9
20260509024429 71 200 0.0 0.0 0.00 0.01 0.01 93 1009.8
20260509023926 71 200 0.0 0.0 0.00 0.01 0.01 92 1009.8
20260509023423 71 200 0.0 0.0 0.00 0.01 0.01 92 1009.6
20260509022919 71 200 0.0 0.0 0.00 0.01 0.01 91 1009.6
20260509022417 72 200 0.0 0.0 0.00 0.01 0.01 91 1009.7
20260509021914 72 200 0.0 0.0 0.00 0.01 0.01 90 1009.7
20260509021411 72 200 0.0 0.0 0.00 0.01 0.01 90 1009.5
20260509020909 73 202 0.0 0.0 0.00 0.01 0.01 88 1009.4
20260509020407 73 202 0.0 1.0 0.00 0.01 0.01 88 1009.2
20260509015903 73 202 0.0 1.0 0.00 0.01 0.01 88 1009.1
20260509015403 73 209 1.0 1.0 0.00 0.01 0.01 89 1009.1
20260509014858 73 215 1.0 1.0 0.00 0.01 0.01 89 1009.1
20260509014355 73 219 0.0 1.0 0.00 0.01 0.01 89 1009.0
20260509013852 72 222 0.0 1.0 0.00 0.01 0.01 90 1009.0
20260509013348 72 221 0.0 0.0 0.00 0.01 0.01 89 1008.9
20260509012844 73 221 0.0 0.0 0.00 0.01 0.01 89 1008.8
20260509012341 73 219 0.0 0.0 0.00 0.01 0.01 88 1008.7
20260509011838 73 218 0.0 0.0 0.00 0.01 0.01 88 1008.8
20260509011335 73 217 0.0 0.0 0.00 0.01 0.01 87 1008.8
20260509010827 74 217 0.0 1.0 0.00 0.01 0.01 87 1008.6
20260509010325 74 208 0.0 0.0 0.00 0.01 0.01 86 1008.8
20260509005822 75 208 0.0 0.0 0.00 0.01 0.01 85 1008.9
20260509005319 75 205 1.0 1.0 0.00 0.01 0.01 84 1008.7
20260509004814 75 210 1.0 1.0 0.00 0.01 0.01 84 1008.9
20260509004310 76 212 1.0 1.0 0.00 0.01 0.01 83 1008.7
20260509003808 76 207 0.0 1.0 0.00 0.01 0.01 83 1008.6
20260509003306 76 216 0.0 1.0 0.00 0.01 0.01 82 1008.7
20260509002803 75 222 1.0 1.0 0.00 0.01 0.01 84 1008.8
20260509002301 75 222 0.0 1.0 0.00 0.01 0.01 84 1008.9
20260509001758 75 217 0.0 0.0 0.00 0.01 0.01 84 1008.8
20260509001254 75 237 0.0 0.0 0.00 0.01 0.01 84 1008.7
20260509000752 75 237 2.0 3.0 0.00 0.01 0.01 83 1008.7
20260509000248 75 235 0.0 1.0 0.00 0.01 0.01 83 1008.7
20260508235746 75 240 1.0 1.0 0.00 0.01 0.01 83 1008.9
20260508235242 75 233 0.0 1.0 0.00 0.01 0.01 83 1009.0
20260508234740 76 233 0.0 0.0 0.00 0.01 0.01 83 1009.0
20260508234235 76 221 1.0 1.0 0.00 0.01 0.01 83 1009.0
20260508233730 76 220 0.0 0.0 0.00 0.01 0.01 83 1009.0
20260508233227 76 222 1.0 1.0 0.00 0.01 0.01 82 1008.9
20260508232724 76 228 1.0 1.0 0.00 0.01 0.01 82 1008.8
20260508232221 77 227 1.0 1.0 0.00 0.01 0.01 82 1008.8
20260508231719 77 220 0.0 0.0 0.00 0.01 0.01 81 1008.7
20260508231215 78 223 1.0 1.0 0.00 0.01 0.01 80 1008.7
20260508230712 78 208 1.0 1.0 0.00 0.01 0.01 80 1008.9
20260508230208 78 212 1.0 1.0 0.00 0.01 0.01 80 1009.1
20260508225706 78 205 1.0 1.0 0.00 0.01 0.01 79 1008.9
20260508225202 78 218 1.0 2.0 0.00 0.01 0.01 80 1008.9
20260508224700 77 176 2.0 2.0 0.00 0.01 0.01 81 1008.9
20260508224157 76 178 2.0 2.0 0.00 0.01 0.01 82 1009.0
20260508223655 76 230 1.0 2.0 0.00 0.01 0.01 82 1008.8
20260508223152 76 243 2.0 3.0 0.00 0.01 0.01 83 1009.1
20260508222650 76 270 3.0 3.0 0.00 0.01 0.01 82 1009.1
20260508222147 76 214 1.0 1.0 0.00 0.01 0.01 82 1009.0
20260508221643 76 226 1.0 1.0 0.00 0.01 0.01 82 1009.0
20260508221139 76 238 0.0 0.0 0.00 0.01 0.01 82 1009.0
20260508220636 76 224 1.0 1.0 0.00 0.01 0.01 82 1009.1
20260508220132 76 218 0.0 0.0 0.00 0.01 0.01 83 1009.0
20260508215629 76 229 1.0 1.0 0.00 0.01 0.01 83 1009.1
20260508215125 76 235 1.0 2.0 0.00 0.01 0.01 83 1009.1
20260508214622 75 231 0.0 1.0 0.00 0.01 0.01 83 1009.2
20260508214119 76 231 1.0 1.0 0.00 0.01 0.01 82 1009.2
20260508213616 76 253 1.0 2.0 0.00 0.01 0.01 82 1009.0
20260508213112 77 234 1.0 1.0 0.00 0.01 0.01 80 1009.3
20260508212609 77 224 1.0 2.0 0.00 0.01 0.01 79 1009.2
20260508212106 77 223 1.0 1.0 0.00 0.01 0.01 81 1009.4
20260508211601 77 208 1.0 1.0 0.00 0.01 0.01 79 1009.5
20260508211057 78 200 1.0 1.0 0.00 0.01 0.01 79 1009.6
20260508210554 78 195 1.0 1.0 0.00 0.01 0.01 78 1009.5
20260508210051 78 216 1.0 1.0 0.00 0.01 0.01 78 1009.4
20260508205549 79 216 0.0 1.0 0.00 0.01 0.01 77 1009.7
20260508205045 78 210 2.0 3.0 0.00 0.01 0.01 77 1009.6
20260508204541 78 235 0.0 1.0 0.00 0.01 0.01 78 1009.9
20260508204037 78 223 1.0 1.0 0.00 0.01 0.01 79 1009.7
20260508203534 78 227 1.0 1.0 0.00 0.01 0.01 79 1010.0
20260508203030 77 218 0.0 1.0 0.00 0.01 0.01 79 1010.0
20260508202527 78 252 2.0 3.0 0.00 0.01 0.01 79 1010.1
20260508202024 78 217 1.0 2.0 0.00 0.01 0.01 78 1009.9
20260508201520 78 208 1.0 1.0 0.00 0.01 0.01 79 1010.0
20260508201017 78 223 1.0 1.0 0.00 0.01 0.01 78 1010.0
20260508200514 77 224 1.0 1.0 0.00 0.01 0.01 79 1010.3
20260508200010 77 212 1.0 1.0 0.00 0.01 0.01 79 1010.2
20260508195507 77 272 2.0 3.0 0.00 0.01 0.01 80 1010.2
20260508195003 76 302 2.0 3.0 0.00 0.01 0.01 80 1010.1
20260508194500 76 23 3.0 5.0 0.00 0.01 0.01 81 1010.3
20260508193957 76 202 1.0 1.0 0.00 0.01 0.01 80 1010.5
20260508193453 76 230 1.0 2.0 0.00 0.01 0.01 80 1010.5
20260508192950 76 209 1.0 1.0 0.00 0.01 0.01 80 1010.4
20260508192447 76 244 1.0 2.0 0.00 0.01 0.01 80 1010.5
20260508191944 76 216 1.0 2.0 0.00 0.01 0.01 79 1010.4
20260508191441 76 197 1.0 2.0 0.00 0.01 0.01 80 1010.6
20260508190937 75 219 2.0 2.0 0.00 0.01 0.01 82 1010.7
20260508190435 74 269 2.0 2.0 0.00 0.01 0.01 81 1010.8
20260508185931 74 238 0.0 1.0 0.00 0.01 0.01 81 1010.6
20260508185428 74 239 1.0 1.0 0.00 0.01 0.01 82 1010.9
20260508184925 73 231 0.0 0.0 0.00 0.01 0.01 82 1010.9
20260508184423 73 234 0.0 1.0 0.00 0.01 0.01 82 1011.2
20260508183919 72 222 1.0 1.0 0.00 0.01 0.01 84 1010.9
20260508183416 72 250 2.0 2.0 0.00 0.01 0.01 83 1011.2
20260508182911 73 245 1.0 2.0 0.00 0.01 0.01 83 1010.9
20260508182409 73 231 2.0 2.0 0.00 0.01 0.01 82 1011.3
20260508181904 73 238 1.0 1.0 0.00 0.01 0.01 83 1011.4
20260508181401 73 234 0.0 1.0 0.00 0.01 0.01 84 1011.7
20260508180858 73 230 1.0 1.0 0.00 0.01 0.01 82 1011.6
20260508180355 74 224 2.0 2.0 0.00 0.01 0.01 82 1011.6
20260508175851 74 231 1.0 1.0 0.00 0.01 0.01 81 1011.6
20260508175348 74 217 1.0 1.0 0.00 0.01 0.01 81 1011.7
20260508174846 73 226 1.0 1.0 0.00 0.01 0.01 82 1011.8
20260508174343 73 225 1.0 1.0 0.00 0.01 0.01 84 1012.0
20260508173839 73 234 1.0 1.0 0.00 0.01 0.01 83 1011.9
20260508173337 72 219 1.0 1.0 0.00 0.01 0.01 83 1011.7
20260508172832 73 237 1.0 1.0 0.00 0.01 0.01 82 1011.9
20260508172330 74 232 1.0 1.0 0.00 0.01 0.01 80 1011.8
20260508171826 74 232 1.0 1.0 0.00 0.01 0.01 80 1011.7
20260508171322 74 222 1.0 1.0 0.00 0.01 0.01 79 1011.7
20260508170819 74 213 1.0 1.0 0.00 0.01 0.01 80 1011.9
20260508170318 73 178 0.0 0.0 0.00 0.01 0.01 80 1011.8
20260508165814 73 229 0.0 1.0 0.00 0.01 0.01 79 1011.9
20260508165311 73 228 0.0 0.0 0.00 0.01 0.01 79 1012.1
20260508164807 73 227 1.0 1.0 0.00 0.01 0.01 78 1011.8
20260508164304 71 192 0.0 1.0 0.00 0.01 0.01 80 1011.9
20260508163802 70 193 0.0 0.0 0.00 0.01 0.01 82 1012.1
20260508163259 69 192 0.0 0.0 0.00 0.01 0.01 83 1012.1
20260508162755 70 192 0.0 0.0 0.00 0.01 0.01 83 1012.3
20260508162252 70 192 0.0 1.0 0.00 0.01 0.01 82 1012.5
20260508161749 69 192 0.0 0.0 0.00 0.01 0.01 82 1012.2
20260508161246 70 192 0.0 1.0 0.00 0.01 0.01 81 1012.5
20260508160744 69 194 0.0 0.0 0.00 0.01 0.01 82 1012.6
20260508160242 69 209 0.0 1.0 0.00 0.01 0.01 82 1012.8
20260508155738 68 200 0.0 1.0 0.00 0.01 0.01 83 1012.9
20260508155235 67 197 1.0 1.0 0.00 0.01 0.01 84 1012.9
20260508154732 66 201 0.0 0.0 0.00 0.01 0.01 85 1013.0
20260508154230 66 208 0.0 1.0 0.00 0.01 0.01 85 1013.1
20260508153726 66 178 2.0 2.0 0.00 0.01 0.01 85 1013.2
20260508153223 66 177 0.0 0.0 0.00 0.01 0.01 85 1013.3
20260508152720 66 177 0.0 0.0 0.00 0.01 0.01 86 1013.6
20260508152215 65 177 0.0 0.0 0.00 0.01 0.01 86 1013.5
20260508151712 65 174 1.0 2.0 0.00 0.01 0.01 87 1013.1
20260508151209 64 193 1.0 1.0 0.00 0.01 0.01 87 1013.4
20260508150706 64 190 3.0 3.0 0.00 0.01 0.01 87 1013.4
20260508150203 64 198 0.0 0.0 0.00 0.01 0.01 88 1013.6
20260508145658 64 202 2.0 2.0 0.00 0.01 0.01 88 1013.4
20260508145154 64 194 3.0 3.0 0.00 0.01 0.01 87 1013.5
20260508144652 64 179 0.0 1.0 0.00 0.01 0.01 88 1013.4
20260508144150 63 192 0.0 0.0 0.00 0.01 0.01 88 1013.5
20260508143647 63 192 1.0 1.0 0.00 0.01 0.01 88 1013.6
20260508143144 63 192 1.0 1.0 0.00 0.01 0.01 88 1013.8
20260508142640 62 192 0.0 0.0 0.00 0.01 0.01 88 1013.8
20260508142137 62 192 0.0 0.0 0.00 0.01 0.01 89 1013.7
20260508141633 62 192 0.0 1.0 0.00 0.01 0.01 89 1013.5
20260508141131 62 194 1.0 2.0 0.00 0.01 0.01 89 1013.2
20260508140629 62 198 2.0 2.0 0.00 0.01 0.01 89 1013.3
20260508140125 61 198 1.0 1.0 0.00 0.01 0.01 89 1013.5
20260508135621 61 197 0.0 1.0 0.00 0.01 0.01 89 1013.5
20260508135117 61 197 2.0 2.0 0.00 0.01 0.01 89 1013.5
20260508134614 61 189 0.0 1.0 0.00 0.01 0.01 89 1013.4
20260508134111 61 190 1.0 2.0 0.00 0.01 0.01 89 1013.2
20260508133608 61 198 2.0 2.0 0.00 0.01 0.01 89 1013.1
20260508133105 60 206 2.0 2.0 0.00 0.01 0.01 90 1013.3
20260508132603 60 207 0.0 1.0 0.00 0.01 0.01 90 1013.5
20260508132059 60 206 1.0 2.0 0.00 0.01 0.01 90 1013.7
20260508131555 60 207 0.0 1.0 0.00 0.01 0.01 90 1013.5
20260508131052 60 208 1.0 1.0 0.00 0.01 0.01 90 1013.1
20260508130548 60 210 3.0 3.0 0.00 0.01 0.01 90 1013.3
20260508130045 60 210 1.0 2.0 0.00 0.01 0.01 90 1013.2
20260508125540 60 210 0.0 1.0 0.00 0.01 0.01 90 1013.3
20260508125039 60 210 0.0 1.0 0.00 0.01 0.01 90 1013.3
20260508124536 60 212 3.0 3.0 0.00 0.01 0.01 91 1013.5
20260508124033 60 213 1.0 1.0 0.00 0.01 0.01 91 1013.4
20260508123532 59 212 0.0 0.0 0.00 0.01 0.01 91 1013.8
20260508123028 59 212 0.0 0.0 0.00 0.01 0.01 91 1013.8
20260508122525 59 212 1.0 1.0 0.00 0.01 0.01 91 1013.7
20260508122022 59 213 0.0 1.0 0.00 0.01 0.01 92 1013.6
20260508121520 59 215 1.0 1.0 0.00 0.01 0.01 92 1013.5
20260508121018 59 215 0.0 0.0 0.00 0.01 0.01 92 1013.5
20260508120515 59 215 2.0 2.0 0.00 0.01 0.01 93 1012.9
20260508120013 59 182 2.0 2.0 0.00 0.01 0.01 93 1013.1
20260508115510 59 203 2.0 2.0 0.00 0.01 0.01 93 1013.3
20260508115007 59 205 0.0 1.0 0.00 0.01 0.01 93 1013.5
20260508114504 59 205 0.0 0.0 0.00 0.01 0.01 93 1013.6
20260508114000 59 201 0.0 1.0 0.00 0.01 0.01 93 1013.4
20260508113458 59 198 0.0 1.0 0.00 0.01 0.01 93 1013.7
20260508112955 59 201 0.0 0.0 0.00 0.01 0.01 92 1013.5
20260508112451 60 200 0.0 0.0 0.00 0.01 0.01 91 1013.5
20260508111948 60 200 0.0 0.0 0.00 0.01 0.01 91 1014.1
20260508111445 60 200 2.0 2.0 0.07 0.01 0.01 90 1014.0
20260508110942 60 200 0.0 0.0 0.07 0.01 0.01 90 1014.0
20260508110440 60 206 0.0 1.0 0.00 0.00 0.00 88 1013.7
20260508105939 61 209 1.0 2.0 0.00 0.00 0.00 86 1014.1
20260508105436 61 220 2.0 2.0 0.00 0.00 0.00 84 1014.0
20260508104934 61 194 2.0 2.0 0.00 0.00 0.00 83 1014.2
20260508104431 61 209 0.0 0.0 0.00 0.00 0.00 83 1014.0
20260508103927 61 200 1.0 2.0 0.00 0.00 0.00 82 1014.0
20260508103425 61 184 2.0 3.0 0.00 0.00 0.00 82 1013.8
20260508102921 61 198 0.0 1.0 0.00 0.00 0.00 82 1013.5
20260508102420 61 204 1.0 1.0 0.00 0.00 0.00 82 1013.6
20260508101917 61 194 2.0 2.0 0.00 0.00 0.00 82 1013.7
20260508101414 61 206 2.0 2.0 0.00 0.00 0.00 82 1014.0
20260508100911 61 196 2.0 3.0 0.00 0.00 0.00 82 1013.6
20260508100410 61 207 2.0 2.0 0.00 0.00 0.00 82 1013.5
20260508095905 61 204 1.0 1.0 0.00 0.00 0.00 82 1013.4
20260508095404 61 189 1.0 2.0 0.00 0.00 0.00 82 1013.4
20260508094900 61 209 3.0 3.0 0.00 0.00 0.00 82 1013.2
20260508094357 61 212 1.0 1.0 0.00 0.00 0.00 81 1013.1
20260508093854 61 213 1.0 1.0 0.00 0.00 0.00 81 1013.1
20260508093351 61 188 2.0 2.0 0.00 0.00 0.00 81 1013.4
20260508092849 61 205 1.0 1.0 0.00 0.00 0.00 82 1013.5
20260508092346 61 194 1.0 1.0 0.00 0.00 0.00 82 1013.4
20260508091845 61 193 0.0 0.0 0.00 0.00 0.00 82 1013.3
20260508091340 61 194 0.0 1.0 0.00 0.00 0.00 82 1013.5
20260508090839 61 193 1.0 1.0 0.00 0.00 0.00 81 1013.7
20260508090337 61 193 0.0 0.0 0.00 0.00 0.00 82 1013.7
20260508085832 61 194 1.0 1.0 0.00 0.00 0.00 82 1013.5
20260508085329 61 194 0.0 1.0 0.00 0.00 0.00 82 1013.8
20260508084825 61 196 0.0 0.0 0.00 0.00 0.00 82 1013.8
20260508084322 61 196 1.0 1.0 0.00 0.00 0.00 81 1013.6
20260508083820 61 196 0.0 1.0 0.00 0.00 0.00 81 1013.8
20260508083317 61 196 1.0 1.0 0.00 0.00 0.00 81 1014.1
20260508082817 61 196 1.0 1.0 0.00 0.00 0.00 81 1013.7
20260508082315 61 196 0.0 0.0 0.00 0.00 0.00 81 1013.7
20260508081812 61 196 1.0 1.0 0.00 0.00 0.00 80 1013.8
20260508081309 61 196 0.0 0.0 0.00 0.00 0.00 80 1014.1
20260508080806 61 196 0.0 0.0 0.00 0.00 0.00 80 1014.1
20260508080304 61 196 0.0 1.0 0.00 0.00 0.00 80 1014.0
20260508075800 62 196 0.0 0.0 0.00 0.00 0.00 80 1014.1
20260508075257 62 196 0.0 0.0 0.00 0.00 0.00 80 1014.2
20260508074755 62 196 0.0 0.0 0.00 0.00 0.00 79 1014.4
20260508074252 62 196 0.0 0.0 0.00 0.00 0.00 80 1014.4
20260508073749 62 196 1.0 1.0 0.00 0.00 0.00 79 1014.1
20260508073247 62 196 0.0 0.0 0.00 0.00 0.00 79 1014.5
20260508072742 62 196 0.0 0.0 0.00 0.00 0.00 79 1014.3
20260508072239 62 196 0.0 0.0 0.00 0.00 0.00 79 1014.3
20260508071737 62 196 0.0 0.0 0.00 0.00 0.00 79 1014.3
20260508071235 62 196 0.0 0.0 0.00 0.00 0.00 78 1014.2
20260508070732 62 196 0.0 1.0 0.00 0.00 0.00 78 1014.4
20260508070231 62 196 0.0 0.0 0.00 0.00 0.00 79 1014.1
20260508065727 62 196 1.0 1.0 0.00 0.00 0.00 79 1014.5
20260508065226 62 196 0.0 1.0 0.00 0.00 0.00 79 1014.1
20260508064723 62 196 1.0 1.0 0.00 0.00 0.00 79 1014.2
20260508064221 62 195 1.0 2.0 0.00 0.00 0.00 78 1014.2
20260508063718 62 195 0.0 0.0 0.00 0.00 0.00 78 1014.5
20260508063216 62 199 0.0 1.0 0.00 0.00 0.00 79 1014.0
20260508062713 62 204 3.0 5.0 0.00 0.00 0.00 79 1014.0
20260508062210 62 202 1.0 2.0 0.00 0.00 0.00 79 1013.8
20260508061707 62 204 1.0 2.0 0.00 0.00 0.00 79 1014.1